User: anonymous   Login
Location: ??????
(42.0089°N, 44.3281°E)
Time: 10:22:42
(UTC+00:00)
Language:

METEOR 2-5 DEB - Orbit

View from above orbital plane
View from above orbital plane
View from above satellite
View from above satellite

Ground track
Ground track

The orbit data is extracted from the following two-line orbital elements,

1 45509U 79095CR  22226.37926306  .00002252  00000-0  10329-2 0  9991
2 45509  81.1965  99.5509 0007052 356.5569 127.3803 14.21037409444686
Epoch (UTC): 14 August 2022 09:06:08
Eccentricity: 0.0007052
inclination: 81.1965°
perigee height: 817 km
apogee height: 827 km
right ascension of ascending node: 99.5509°
argument of perigee: 356.5569°
revolutions per day: 14.21037409
mean anomaly at epoch: 127.3803°
orbit number at epoch: 44468

The dashed part of the orbit path shows where the satellite is in the earth's shadow,  

DLR